Location: Baturyn
(53.6332°N, 113.5041°W)
Time: 03:18:55
(UTC+00:00)

N. Korean satellite - Pass Details

Date: 08 December 2021
Orbit: 446 x 492 km, 97.3° (Epoch: 16 January)

Event Time Altitude Azimuth Distance (km) Brightness Sun altitude
Rises 12:12:18 0° 23° (NNE) 2,468 10.4 -29.0°
Reaches altitude 10° 12:14:38 10° 38° (NE) 1,587 9.6 -28.6°
Maximum altitude 12:17:26 23° 94° (E) 991 8.8 -28.2°
Drops below altitude 10° 12:20:12 10° 149° (SSE) 1,575 9.5 -27.8°
Sets 12:22:30 0° 164° (SSE) 2,443 10.3 -27.5°
